QPF
0.00 0.00 0.00 0.00 0.00 0.00 0.01 0.01 0.01 0.02 0.02 0.02 0.03 0.03 0.02 0.02 0.02 0.02 0.02 0.02 0.03 0.03 0.02 0.01 0.01 0.01 0.01 0.01 0.01 0.01 0.01 0.01 0.01 0.02 0.02 0.02 0.01 0.01 0.01 0.00 0.00 0.01 0.01 0.01
0.00 0.00 0.00 0.00 0.00 0.00 0.00 0.01 0.01 0.02 0.02 0.02 0.03 0.03 0.01 0.01 0.02 0.03 0.03 0.02 0.02 0.02 0.01 0.02 0.02 0.01 0.01 0.01 0.01 0.01 0.01 0.02 0.02 0.03 0.03 0.02 0.01 0.00 0.00 0.00 0.00 0.00 0.01 0.01
0.00 0.00 0.00 0.00 0.00 0.00 0.00 0.01 0.01 0.01 0.03 0.03 0.02 0.02 0.01 0.02 0.01 0.02 0.02 0.02 0.01 0.02 0.02 0.02 0.02 0.02 0.02 0.02 0.01 0.02 0.02 0.02 0.02 0.01 0.01 0.00 0.00 0.01 0.01 0.01 0.01 0.01 0.01 0.01
0.01 0.01 0.01 0.01 0.01 0.01 0.01 0.01 0.01 0.01 0.02 0.02 0.01 0.01 0.01 0.01 0.02 0.02 0.02 0.02 0.02 0.03 0.03 0.03 0.03 0.03 0.02 0.02 0.02 0.02 0.03 0.03 0.02 0.01 0.01 0.01 0.01 0.01 0.01 0.01 0.01 0.01 0.01 0.01
0.02 0.02 0.01 0.02 0.04 0.04 0.01 0.01 0.01 0.01 0.01 0.01 0.01 0.02 0.02 0.02 0.03 0.03 0.03 0.04 0.03 0.02 0.03 0.02 0.02 0.02 0.02 0.02 0.02 0.02 0.02 0.01 0.01 0.01 0.01 0.01 0.01 0.01 0.01 0.01 0.01 0.01 0.01 0.01
0.01 0.03 0.03 0.03 0.07 0.04 0.01 0.01 0.01 0.00 0.01 0.01 0.01 0.01 0.02 0.03 0.04 0.03 0.04 0.04 0.02 0.02 0.02 0.02 0.02 0.02 0.03 0.02 0.02 0.01 0.01 0.02 0.02 0.02 0.02 0.02 0.02 0.02 0.02 0.02 0.01 0.01 0.01 0.01
0.01 0.02 0.04 0.04 0.02 0.01 0.01 0.01 0.01 0.01 0.01 0.01 0.01 0.02 0.02 0.02 0.03 0.02 0.04 0.04 0.04 0.03 0.03 0.02 0.01 0.02 0.02 0.02 0.02 0.03 0.04 0.03 0.03 0.03 0.04 0.03 0.03 0.03 0.02 0.02 0.01 0.00 0.00 0.00
0.01 0.02 0.03 0.03 0.02 0.01 0.01 0.00 0.01 0.01 0.01 0.01 0.01 0.01 0.01 0.02 0.03 0.02 0.02 0.01 0.03 0.05 0.04 0.03 0.02 0.02 0.02 0.02 0.03 0.04 0.04 0.04 0.04 0.04 0.04 0.04 0.03 0.03 0.02 0.01 0.01 0.00 0.00 0.00
0.03 0.03 0.02 0.01 0.01 0.02 0.01 0.01 0.01 0.01 0.01 0.01 0.01 0.01 0.01 0.02 0.03 0.02 0.01 0.01 0.01 0.03 0.05 0.04 0.03 0.03 0.03 0.04 0.03 0.03 0.03 0.03 0.04 0.04 0.04 0.03 0.03 0.03 0.02 0.01 0.01 0.01 0.01 0.00
0.03 0.02 0.01 0.01 0.02 0.02 0.02 0.02 0.01 0.01 0.01 0.01 0.01 0.01 0.01 0.01 0.01 0.01 0.02 0.02 0.02 0.03 0.03 0.04 0.05 0.04 0.04 0.04 0.04 0.03 0.03 0.02 0.02 0.02 0.02 0.01 0.02 0.01 0.01 0.01 0.01 0.01 0.01 0.00
0.05 0.04 0.03 0.03 0.05 0.05 0.04 0.04 0.02 0.01 0.01 0.01 0.01 0.01 0.01 0.01 0.01 0.02 0.02 0.03 0.03 0.04 0.04 0.04 0.04 0.04 0.04 0.05 0.04 0.03 0.03 0.03 0.02 0.02 0.01 0.01 0.01 0.01 0.01 0.01 0.01 0.02 0.01 0.01
0.06 0.07 0.07 0.05 0.06 0.05 0.03 0.03 0.01 0.01 0.01 0.01 0.01 0.01 0.03 0.03 0.02 0.02 0.02 0.03 0.03 0.03 0.04 0.04 0.04 0.04 0.04 0.05 0.04 0.03 0.03 0.04 0.03 0.02 0.01 0.01 0.01 0.01 0.01 0.01 0.01 0.02 0.03 0.02
0.05 0.12 0.09 0.06 0.05 0.04 0.03 0.02 0.01 0.02 0.02 0.02 0.01 0.01 0.03 0.04 0.03 0.02 0.02 0.03 0.03 0.03 0.03 0.03 0.03 0.03 0.04 0.05 0.05 0.04 0.04 0.04 0.03 0.02 0.01 0.01 0.01 0.01 0.01 0.01 0.00 0.01 0.01 0.02
0.04 0.11 0.14 0.12 0.12 0.05 0.04 0.03 0.03 0.04 0.04 0.04 0.05 0.04 0.05 0.07 0.06 0.04 0.04 0.04 0.04 0.04 0.03 0.02 0.02 0.03 0.04 0.04 0.04 0.05 0.05 0.04 0.03 0.03 0.03 0.02 0.02 0.02 0.02 0.01 0.01 0.01 0.01 0.01
0.05 0.06 0.08 0.11 0.08 0.05 0.04 0.04 0.04 0.04 0.05 0.06 0.11 0.11 0.08 0.08 0.07 0.05 0.04 0.03 0.03 0.03 0.03 0.03 0.02 0.03 0.03 0.04 0.04 0.04 0.04 0.04 0.04 0.04 0.03 0.03 0.03 0.03 0.03 0.03 0.02 0.01 0.01 0.00
0.03 0.05 0.05 0.07 0.06 0.05 0.03 0.04 0.05 0.08 0.11 0.14 0.10 0.07 0.05 0.04 0.04 0.03 0.03 0.02 0.03 0.04 0.04 0.03 0.03 0.03 0.03 0.03 0.03 0.04 0.04 0.05 0.05 0.05 0.04 0.04 0.04 0.03 0.04 0.04 0.03 0.02 0.01 0.01
0.03 0.04 0.05 0.04 0.04 0.03 0.02 0.03 0.04 0.09 0.14 0.12 0.08 0.05 0.04 0.03 0.03 0.03 0.02 0.02 0.03 0.03 0.04 0.04 0.03 0.03 0.03 0.02 0.03 0.04 0.04 0.04 0.05 0.05 0.05 0.05 0.05 0.04 0.04 0.03 0.02 0.02 0.02 0.01
0.03 0.03 0.05 0.04 0.03 0.03 0.03 0.03 0.02 0.04 0.06 0.06 0.05 0.04 0.03 0.02 0.02 0.02 0.02 0.02 0.03 0.03 0.02 0.02 0.03 0.03 0.02 0.02 0.02 0.03 0.03 0.04 0.04 0.04 0.05 0.06 0.06 0.05 0.04 0.03 0.02 0.02 0.01 0.01
0.02 0.02 0.04 0.03 0.02 0.02 0.02 0.03 0.02 0.02 0.03 0.03 0.02 0.01 0.02 0.02 0.02 0.01 0.01 0.01 0.01 0.01 0.01 0.01 0.02 0.02 0.02 0.02 0.02 0.02 0.03 0.03 0.02 0.03 0.04 0.05 0.06 0.05 0.04 0.03 0.02 0.02 0.02 0.01
0.01 0.02 0.04 0.03 0.02 0.01 0.02 0.04 0.03 0.02 0.02 0.02 0.02 0.02 0.01 0.01 0.01 0.01 0.01 0.01 0.01 0.01 0.01 0.02 0.02 0.02 0.02 0.02 0.01 0.01 0.01 0.01 0.01 0.02 0.02 0.03 0.05 0.04 0.04 0.04 0.04 0.03 0.02 0.02
0.02 0.02 0.03 0.04 0.03 0.02 0.02 0.04 0.05 0.06 0.07 0.05 0.04 0.03 0.02 0.02 0.01 0.01 0.01 0.01 0.01 0.01 0.01 0.02 0.02 0.02 0.01 0.02 0.02 0.02 0.01 0.01 0.01 0.01 0.02 0.02 0.03 0.04 0.04 0.04 0.04 0.04 0.03 0.02
0.04 0.03 0.03 0.04 0.03 0.02 0.03 0.06 0.08 0.07 0.07 0.07 0.06 0.05 0.04 0.03 0.02 0.01 0.01 0.02 0.02 0.02 0.02 0.02 0.02 0.01 0.01 0.01 0.02 0.02 0.02 0.02 0.02 0.01 0.01 0.02 0.02 0.02 0.04 0.04 0.03 0.03 0.03 0.02
0.04 0.03 0.03 0.03 0.02 0.02 0.03 0.06 0.09 0.06 0.04 0.05 0.04 0.03 0.02 0.02 0.01 0.01 0.01 0.01 0.02 0.02 0.01 0.01 0.01 0.01 0.01 0.01 0.01 0.01 0.02 0.02 0.02 0.02 0.01 0.01 0.01 0.02 0.03 0.03 0.04 0.04 0.04 0.04
0.04 0.03 0.02 0.02 0.02 0.03 0.03 0.05 0.08 0.06 0.04 0.04 0.03 0.02 0.02 0.02 0.01 0.01 0.01 0.01 0.02 0.01 0.01 0.01 0.02 0.02 0.01 0.01 0.01 0.01 0.01 0.02 0.02 0.01 0.01 0.01 0.01 0.01 0.01 0.02 0.03 0.05 0.05 0.05
0.04 0.03 0.03 0.03 0.02 0.03 0.03 0.04 0.07 0.06 0.04 0.03 0.02 0.02 0.03 0.02 0.01 0.01 0.01 0.01 0.01 0.01 0.01 0.02 0.02 0.02 0.02 0.02 0.02 0.02 0.01 0.01 0.01 0.01 0.01 0.01 0.01 0.01 0.02 0.02 0.03 0.04 0.04 0.05
0.05 0.04 0.04 0.03 0.03 0.02 0.03 0.04 0.05 0.03 0.02 0.02 0.02 0.02 0.02 0.02 0.02 0.01 0.01 0.01 0.01 0.01 0.01 0.01 0.01 0.01 0.01 0.01 0.01 0.01 0.01 0.01 0.01 0.01 0.01 0.01 0.01 0.01 0.01 0.02 0.03 0.03 0.04 0.04
0.05 0.04 0.03 0.03 0.03 0.03 0.03 0.04 0.05 0.03 0.02 0.02 0.02 0.02 0.01 0.02 0.02 0.01 0.01 0.01 0.01 0.01 0.01 0.01 0.01 0.00 0.00 0.00 0.00 0.00 0.01 0.01 0.01 0.01 0.01 0.02 0.02 0.02 0.02 0.02 0.03 0.03 0.03 0.04
MSLP
1009.24 1009.59 1009.92 1010.22 1010.44 1010.57 1010.57 1010.43 1010.16 1009.79 1009.36 1008.93 1008.57 1008.32 1008.25 1008.34 1008.60 1009.00 1009.47 1009.98 1010.47 1010.92 1011.30 1011.62 1011.91 1012.20 1012.52 1012.89 1013.32 1013.80 1014.31 1014.83 1015.32 1015.76 1016.13 1016.44 1016.69 1016.89 1017.08 1017.25 1017.42 1017.60 1017.78 1017.95
1009.84 1010.08 1010.21 1010.23 1010.13 1009.93 1009.62 1009.24 1008.81 1008.38 1007.99 1007.68 1007.51 1007.48 1007.61 1007.88 1008.26 1008.72 1009.20 1009.68 1010.13 1010.52 1010.88 1011.21 1011.55 1011.92 1012.34 1012.82 1013.35 1013.92 1014.49 1015.04 1015.55 1015.99 1016.36 1016.67 1016.92 1017.15 1017.35 1017.56 1017.77 1017.99 1018.19 1018.39
1010.41 1010.51 1010.45 1010.22 1009.85 1009.36 1008.80 1008.21 1007.65 1007.17 1006.80 1006.59 1006.55 1006.68 1006.96 1007.35 1007.81 1008.30 1008.78 1009.23 1009.64 1010.01 1010.36 1010.73 1011.12 1011.58 1012.10 1012.68 1013.31 1013.96 1014.59 1015.18 1015.70 1016.16 1016.53 1016.85 1017.13 1017.38 1017.62 1017.87 1018.12 1018.36 1018.60 1018.81
1010.87 1010.82 1010.57 1010.13 1009.54 1008.84 1008.08 1007.34 1006.69 1006.16 1005.81 1005.66 1005.71 1005.94 1006.30 1006.75 1007.25 1007.75 1008.22 1008.65 1009.04 1009.40 1009.77 1010.18 1010.64 1011.18 1011.79 1012.47 1013.18 1013.89 1014.56 1015.19 1015.73 1016.20 1016.60 1016.94 1017.24 1017.54 1017.82 1018.12 1018.42 1018.70 1018.97 1019.20
1011.14 1010.93 1010.51 1009.91 1009.15 1008.30 1007.42 1006.59 1005.88 1005.34 1005.00 1004.88 1004.97 1005.24 1005.64 1006.11 1006.62 1007.11 1007.57 1007.98 1008.37 1008.75 1009.16 1009.62 1010.15 1010.76 1011.45 1012.19 1012.96 1013.71 1014.41 1015.06 1015.62 1016.11 1016.53 1016.91 1017.26 1017.60 1017.95 1018.30 1018.65 1018.98 1019.28 1019.53
1011.20 1010.83 1010.26 1009.53 1008.66 1007.73 1006.79 1005.92 1005.19 1004.65 1004.32 1004.22 1004.33 1004.61 1005.00 1005.47 1005.96 1006.44 1006.89 1007.30 1007.71 1008.12 1008.58 1009.09 1009.69 1010.37 1011.11 1011.90 1012.69 1013.46 1014.18 1014.83 1015.41 1015.92 1016.37 1016.79 1017.20 1017.61 1018.02 1018.44 1018.84 1019.21 1019.54 1019.81
1011.05 1010.52 1009.83 1009.01 1008.09 1007.12 1006.17 1005.32 1004.60 1004.08 1003.77 1003.68 1003.78 1004.05 1004.43 1004.87 1005.34 1005.80 1006.25 1006.68 1007.12 1007.58 1008.09 1008.67 1009.33 1010.06 1010.84 1011.65 1012.45 1013.22 1013.94 1014.59 1015.18 1015.70 1016.20 1016.67 1017.13 1017.61 1018.08 1018.56 1019.01 1019.43 1019.78 1020.08
1010.73 1010.06 1009.28 1008.40 1007.45 1006.50 1005.59 1004.78 1004.11 1003.63 1003.34 1003.25 1003.35 1003.59 1003.94 1004.35 1004.80 1005.25 1005.71 1006.17 1006.65 1007.17 1007.75 1008.39 1009.09 1009.86 1010.66 1011.48 1012.28 1013.05 1013.75 1014.41 1015.00 1015.55 1016.08 1016.60 1017.13 1017.66 1018.19 1018.72 1019.21 1019.66 1020.04 1020.34
1010.28 1009.51 1008.66 1007.76 1006.83 1005.92 1005.07 1004.33 1003.72 1003.29 1003.03 1002.95 1003.03 1003.25 1003.56 1003.94 1004.37 1004.82 1005.30 1005.80 1006.33 1006.91 1007.54 1008.24 1008.99 1009.79 1010.60 1011.42 1012.22 1012.97 1013.68 1014.33 1014.94 1015.52 1016.09 1016.66 1017.23 1017.81 1018.39 1018.94 1019.46 1019.92 1020.31 1020.62
1009.78 1008.94 1008.07 1007.18 1006.29 1005.44 1004.67 1004.00 1003.47 1003.08 1002.85 1002.77 1002.84 1003.02 1003.30 1003.66 1004.07 1004.52 1005.02 1005.55 1006.13 1006.76 1007.45 1008.19 1008.98 1009.80 1010.63 1011.45 1012.24 1013.00 1013.70 1014.37 1015.01 1015.62 1016.23 1016.84 1017.45 1018.06 1018.66 1019.23 1019.75 1020.21 1020.59 1020.89
1009.30 1008.44 1007.57 1006.71 1005.88 1005.11 1004.42 1003.82 1003.34 1003.00 1002.79 1002.71 1002.75 1002.91 1003.16 1003.48 1003.87 1004.32 1004.83 1005.39 1006.00 1006.67 1007.40 1008.18 1008.99 1009.83 1010.67 1011.50 1012.29 1013.06 1013.78 1014.48 1015.15 1015.80 1016.45 1017.10 1017.74 1018.38 1018.98 1019.55 1020.06 1020.49 1020.85 1021.13
1008.89 1008.05 1007.22 1006.42 1005.66 1004.96 1004.33 1003.80 1003.37 1003.04 1002.84 1002.74 1002.76 1002.88 1003.09 1003.38 1003.74 1004.18 1004.68 1005.25 1005.88 1006.58 1007.32 1008.12 1008.94 1009.78 1010.63 1011.47 1012.28 1013.07 1013.82 1014.56 1015.28 1015.98 1016.67 1017.36 1018.03 1018.67 1019.27 1019.82 1020.30 1020.71 1021.04 1021.30
1008.60 1007.82 1007.05 1006.31 1005.62 1004.98 1004.41 1003.92 1003.51 1003.19 1002.97 1002.85 1002.83 1002.90 1003.06 1003.31 1003.64 1004.05 1004.53 1005.09 1005.72 1006.40 1007.15 1007.94 1008.76 1009.60 1010.44 1011.29 1012.12 1012.94 1013.74 1014.52 1015.30 1016.05 1016.80 1017.52 1018.21 1018.86 1019.46 1019.99 1020.44 1020.82 1021.13 1021.37
1008.45 1007.74 1007.05 1006.38 1005.75 1005.16 1004.62 1004.14 1003.73 1003.40 1003.15 1002.98 1002.91 1002.93 1003.04 1003.24 1003.53 1003.90 1004.35 1004.88 1005.48 1006.14 1006.85 1007.62 1008.41 1009.24 1010.08 1010.92 1011.77 1012.62 1013.47 1014.31 1015.14 1015.96 1016.75 1017.51 1018.23 1018.89 1019.48 1020.00 1020.44 1020.80 1021.09 1021.32
1008.43 1007.81 1007.19 1006.59 1006.01 1005.45 1004.92 1004.43 1004.00 1003.63 1003.33 1003.11 1002.98 1002.94 1003.00 1003.15 1003.39 1003.72 1004.13 1004.62 1005.17 1005.79 1006.46 1007.18 1007.94 1008.73 1009.55 1010.40 1011.26 1012.14 1013.02 1013.91 1014.80 1015.67 1016.52 1017.32 1018.06 1018.74 1019.34 1019.85 1020.29 1020.64 1020.93 1021.16
1008.53 1007.99 1007.44 1006.89 1006.34 1005.78 1005.25 1004.73 1004.26 1003.83 1003.47 1003.20 1003.01 1002.92 1002.93 1003.03 1003.23 1003.52 1003.89 1004.34 1004.85 1005.42 1006.04 1006.70 1007.41 1008.16 1008.95 1009.78 1010.64 1011.53 1012.45 1013.38 1014.31 1015.23 1016.12 1016.96 1017.74 1018.44 1019.05 1019.57 1020.01 1020.37 1020.67 1020.92
1008.69 1008.23 1007.74 1007.22 1006.67 1006.11 1005.54 1004.97 1004.44 1003.95 1003.53 1003.20 1002.96 1002.82 1002.79 1002.87 1003.05 1003.32 1003.66 1004.08 1004.55 1005.08 1005.65 1006.26 1006.92 1007.62 1008.37 1009.17 1010.01 1010.90 1011.83 1012.78 1013.74 1014.69 1015.62 1016.49 1017.30 1018.02 1018.66 1019.20 1019.65 1020.03 1020.34 1020.62
1008.88 1008.47 1008.01 1007.50 1006.95 1006.35 1005.73 1005.11 1004.51 1003.95 1003.47 1003.08 1002.80 1002.64 1002.59 1002.66 1002.84 1003.10 1003.45 1003.85 1004.31 1004.81 1005.35 1005.92 1006.53 1007.19 1007.89 1008.65 1009.47 1010.34 1011.26 1012.21 1013.18 1014.14 1015.08 1015.98 1016.80 1017.55 1018.20 1018.77 1019.24 1019.64 1019.98 1020.27
1009.05 1008.67 1008.22 1007.70 1007.11 1006.47 1005.78 1005.08 1004.41 1003.79 1003.25 1002.81 1002.51 1002.33 1002.29 1002.38 1002.57 1002.87 1003.24 1003.66 1004.13 1004.63 1005.16 1005.71 1006.29 1006.91 1007.57 1008.29 1009.07 1009.91 1010.79 1011.72 1012.67 1013.63 1014.56 1015.46 1016.29 1017.05 1017.72 1018.30 1018.80 1019.22 1019.58 1019.89
1009.16 1008.78 1008.32 1007.77 1007.14 1006.42 1005.67 1004.89 1004.15 1003.46 1002.86 1002.39 1002.07 1001.89 1001.87 1001.99 1002.23 1002.58 1003.00 1003.47 1003.98 1004.51 1005.05 1005.60 1006.17 1006.77 1007.40 1008.08 1008.81 1009.60 1010.44 1011.33 1012.24 1013.16 1014.07 1014.95 1015.77 1016.53 1017.21 1017.80 1018.31 1018.75 1019.13 1019.45
1009.18 1008.80 1008.31 1007.72 1007.02 1006.23 1005.40 1004.55 1003.72 1002.97 1002.33 1001.82 1001.49 1001.32 1001.33 1001.49 1001.79 1002.19 1002.68 1003.22 1003.79 1004.36 1004.94 1005.52 1006.10 1006.69 1007.31 1007.95 1008.64 1009.38 1010.17 1010.99 1011.85 1012.72 1013.59 1014.43 1015.22 1015.96 1016.63 1017.23 1017.75 1018.20 1018.59 1018.92
1009.12 1008.71 1008.18 1007.54 1006.77 1005.92 1005.01 1004.08 1003.18 1002.37 1001.68 1001.15 1000.80 1000.64 1000.67 1000.87 1001.22 1001.69 1002.25 1002.86 1003.49 1004.13 1004.76 1005.38 1005.99 1006.59 1007.20 1007.82 1008.48 1009.17 1009.90 1010.66 1011.45 1012.26 1013.06 1013.85 1014.61 1015.32 1015.97 1016.56 1017.08 1017.54 1017.94 1018.28
1008.96 1008.53 1007.96 1007.26 1006.44 1005.52 1004.54 1003.55 1002.59 1001.72 1000.99 1000.42 1000.05 999.89 999.93 1000.16 1000.55 1001.07 1001.68 1002.35 1003.05 1003.76 1004.44 1005.11 1005.75 1006.37 1006.99 1007.61 1008.23 1008.88 1009.56 1010.26 1010.99 1011.72 1012.46 1013.19 1013.90 1014.57 1015.20 1015.77 1016.29 1016.75 1017.16 1017.52
1008.72 1008.26 1007.67 1006.93 1006.06 1005.09 1004.06 1003.01 1002.01 1001.09 1000.32 999.72 999.33 999.15 999.19 999.42 999.82 1000.37 1001.01 1001.72 1002.47 1003.22 1003.96 1004.67 1005.35 1006.00 1006.62 1007.24 1007.85 1008.47 1009.11 1009.76 1010.42 1011.09 1011.77 1012.44 1013.09 1013.72 1014.32 1014.87 1015.38 1015.84 1016.26 1016.63
1008.40 1007.92 1007.30 1006.54 1005.64 1004.65 1003.59 1002.51 1001.48 1000.54 999.74 999.11 998.70 998.49 998.51 998.72 999.12 999.65 1000.30 1001.03 1001.79 1002.57 1003.33 1004.07 1004.78 1005.45 1006.10 1006.72 1007.33 1007.93 1008.53 1009.14 1009.75 1010.37 1010.99 1011.60 1012.20 1012.79 1013.35 1013.88 1014.38 1014.84 1015.27 1015.66
1007.97 1007.49 1006.87 1006.10 1005.21 1004.21 1003.15 1002.08 1001.05 1000.11 999.30 998.66 998.22 997.99 997.98 998.16 998.52 999.02 999.64 1000.35 1001.10 1001.87 1002.64 1003.39 1004.11 1004.79 1005.45 1006.08 1006.68 1007.27 1007.85 1008.43 1009.00 1009.58 1010.15 1010.71 1011.27 1011.81 1012.34 1012.85 1013.33 1013.79 1014.22 1014.63
1007.44 1006.96 1006.35 1005.60 1004.73 1003.76 1002.74 1001.71 1000.72 999.80 999.01 998.39 997.95 997.70 997.65 997.79 998.10 998.56 999.13 999.78 1000.49 1001.23 1001.97 1002.71 1003.42 1004.10 1004.75 1005.37 1005.97 1006.55 1007.12 1007.67 1008.21 1008.75 1009.28 1009.80 1010.32 1010.83 1011.33 1011.81 1012.28 1012.73 1013.17 1013.58
Thickness
5778 5788 5793 5790 5790 5792 5783 5776 5767 5774 5779 5788 5797 5799 5799 5798 5795 5791 5787 5786 5784 5781 5777 5775 5772 5770 5768 5765 5762 5759 5754 5750 5747 5745 5743 5740 5738 5735 5733 5731 5729 5727 5725 5723
5770 5785 5786 5782 5788 5790 5789 5788 5783 5782 5780 5796 5799 5798 5795 5793 5789 5784 5782 5782 5780 5777 5774 5770 5768 5765 5762 5759 5757 5754 5749 5746 5743 5740 5737 5735 5732 5729 5727 5724 5722 5720 5718 5716
5746 5767 5770 5760 5776 5781 5781 5785 5783 5774 5780 5791 5789 5789 5788 5787 5786 5783 5780 5778 5775 5773 5771 5768 5765 5761 5756 5754 5751 5747 5744 5741 5738 5735 5732 5729 5727 5723 5720 5717 5715 5713 5711 5709
5735 5746 5734 5758 5787 5789 5782 5780 5785 5784 5785 5788 5788 5786 5786 5785 5782 5780 5777 5773 5770 5768 5765 5763 5761 5757 5754 5749 5745 5741 5738 5735 5732 5729 5726 5723 5720 5717 5714 5711 5708 5706 5704 5702
5721 5721 5733 5760 5778 5778 5770 5764 5779 5779 5778 5780 5782 5777 5772 5778 5779 5776 5773 5770 5767 5765 5762 5758 5755 5752 5747 5742 5739 5735 5731 5728 5726 5724 5720 5717 5713 5711 5708 5705 5701 5699 5697 5695
5717 5716 5715 5743 5772 5784 5772 5748 5770 5773 5770 5771 5770 5752 5755 5769 5771 5769 5767 5765 5762 5759 5756 5751 5748 5745 5740 5734 5731 5727 5725 5723 5720 5717 5714 5710 5707 5704 5701 5698 5695 5692 5689 5688
5710 5709 5720 5749 5769 5773 5740 5739 5763 5767 5765 5763 5758 5756 5760 5764 5763 5762 5760 5758 5755 5751 5747 5743 5741 5737 5730 5726 5723 5722 5720 5717 5714 5711 5708 5704 5701 5697 5693 5690 5687 5684 5681 5679
5702 5700 5710 5749 5754 5744 5741 5753 5757 5759 5759 5757 5754 5755 5755 5754 5753 5752 5750 5748 5746 5741 5737 5735 5732 5728 5722 5718 5717 5715 5712 5709 5705 5703 5701 5698 5693 5689 5685 5681 5677 5674 5671 5669
5707 5709 5728 5741 5743 5747 5749 5746 5747 5748 5751 5751 5747 5744 5744 5742 5742 5741 5741 5738 5736 5732 5727 5724 5722 5720 5714 5711 5709 5706 5703 5699 5696 5694 5691 5688 5684 5680 5676 5673 5668 5665 5662 5659
5704 5712 5721 5729 5735 5740 5743 5741 5743 5744 5743 5742 5737 5735 5733 5732 5731 5729 5728 5727 5724 5721 5716 5713 5712 5711 5707 5704 5701 5698 5694 5691 5687 5684 5681 5679 5676 5673 5668 5664 5660 5657 5653 5650
5695 5703 5710 5718 5723 5729 5732 5734 5734 5734 5734 5732 5729 5725 5724 5722 5720 5719 5718 5715 5713 5709 5705 5703 5702 5700 5698 5695 5693 5688 5684 5682 5678 5675 5672 5669 5667 5664 5662 5659 5655 5651 5647 5644
5685 5695 5697 5702 5713 5719 5720 5720 5720 5720 5719 5721 5720 5717 5715 5712 5711 5709 5707 5704 5701 5699 5696 5693 5692 5690 5689 5687 5684 5680 5676 5673 5670 5667 5664 5660 5657 5654 5654 5651 5649 5645 5642 5638
5692 5697 5697 5701 5705 5709 5709 5710 5712 5711 5709 5708 5708 5708 5706 5703 5701 5699 5697 5694 5691 5689 5686 5684 5682 5680 5679 5678 5675 5672 5668 5665 5662 5659 5656 5652 5649 5645 5641 5640 5640 5637 5634 5631
5693 5692 5688 5690 5692 5697 5699 5701 5701 5700 5699 5699 5697 5696 5695 5692 5690 5688 5687 5685 5683 5680 5677 5675 5672 5671 5670 5669 5666 5664 5661 5659 5656 5651 5648 5644 5641 5637 5634 5630 5627 5625 5625 5623
5683 5684 5681 5682 5682 5685 5689 5690 5688 5685 5684 5686 5687 5685 5684 5681 5679 5678 5678 5677 5675 5671 5668 5666 5663 5661 5662 5660 5657 5655 5652 5650 5648 5644 5641 5636 5632 5629 5626 5622 5618 5616 5614 5613
5672 5673 5672 5670 5670 5673 5676 5677 5676 5674 5676 5676 5676 5675 5675 5673 5671 5670 5669 5669 5665 5661 5659 5656 5653 5653 5653 5651 5649 5646 5644 5643 5640 5636 5632 5627 5624 5620 5616 5613 5610 5607 5605 5603
5660 5658 5659 5659 5661 5663 5666 5668 5668 5668 5668 5668 5667 5668 5667 5664 5662 5660 5659 5659 5657 5654 5652 5648 5646 5645 5644 5643 5641 5637 5634 5633 5632 5627 5623 5619 5615 5612 5608 5605 5602 5599 5597 5596
5657 5656 5656 5656 5656 5656 5658 5659 5661 5661 5660 5661 5660 5660 5658 5655 5653 5651 5650 5649 5647 5645 5644 5642 5640 5638 5636 5635 5632 5629 5626 5623 5620 5617 5614 5610 5608 5604 5601 5597 5594 5592 5590 5589
5652 5652 5653 5653 5653 5652 5651 5652 5653 5654 5653 5653 5652 5651 5649 5648 5646 5644 5642 5640 5637 5634 5634 5634 5633 5630 5628 5627 5625 5621 5618 5615 5612 5609 5606 5603 5599 5596 5593 5590 5587 5585 5584 5581
5645 5647 5647 5647 5648 5646 5645 5645 5646 5645 5645 5644 5643 5642 5640 5639 5637 5635 5633 5630 5629 5628 5627 5626 5623 5621 5620 5618 5617 5614 5610 5607 5604 5601 5598 5594 5591 5588 5586 5584 5581 5579 5576 5574
5636 5637 5638 5638 5638 5639 5639 5639 5639 5638 5637 5636 5634 5633 5631 5630 5629 5626 5624 5620 5621 5621 5620 5618 5615 5613 5612 5611 5609 5605 5602 5599 5596 5593 5590 5587 5583 5581 5579 5577 5575 5572 5570 5568
5626 5627 5628 5630 5630 5630 5632 5633 5633 5632 5630 5629 5628 5626 5623 5621 5619 5617 5616 5614 5614 5614 5611 5609 5607 5606 5604 5602 5599 5596 5593 5591 5587 5585 5582 5579 5576 5574 5573 5571 5568 5566 5564 5562
5618 5619 5620 5622 5622 5623 5625 5625 5626 5625 5623 5621 5620 5618 5616 5614 5612 5610 5607 5608 5607 5606 5603 5601 5600 5598 5596 5593 5590 5588 5585 5583 5580 5578 5575 5573 5570 5568 5566 5564 5562 5560 5558 5555
5611 5612 5612 5614 5615 5615 5614 5616 5618 5618 5617 5616 5614 5613 5611 5608 5605 5605 5604 5603 5601 5598 5595 5593 5592 5590 5588 5584 5582 5579 5577 5575 5573 5571 5568 5566 5564 5562 5559 5557 5554 5552 5550 5548
5605 5605 5605 5606 5606 5607 5608 5609 5610 5610 5609 5608 5607 5606 5605 5604 5600 5598 5597 5595 5594 5591 5588 5586 5585 5583 5580 5577 5575 5572 5569 5568 5566 5564 5562 5559 5557 5555 5553 5550 5547 5545 5542 5540
5599 5599 5599 5601 5602 5602 5603 5602 5601 5601 5601 5599 5598 5598 5598 5596 5594 5592 5590 5588 5586 5584 5581 5579 5578 5576 5574 5571 5569 5567 5564 5562 5560 5558 5556 5553 5551 5549 5546 5544 5542 5538 5536 5534
5595 5595 5595 5595 5596 5597 5597 5596 5595 5594 5594 5593 5591 5591 5590 5589 5587 5585 5583 5581 5579 5577 5575 5573 5572 5570 5568 5566 5564 5562 5560 5558 5555 5553 5550 5548 5545 5543 5541 5539 5536 5534 5531 5529